• MPC Preparation (Info)

  • MPEC 2020-S240 : COMET P/2020 S5 (PANSTARRS)

    The following Minor Planet Electronic Circular may be linked-to from your own Web pages, but must not otherwise be redistributed electronically.

    A form allowing access to any MPEC is at the bottom of this page.


    Read MPEC 2020-S239 Read MPEC 2020-S241


    M.P.E.C. 2020-S240                           Issued 2020 September 29, 02:45 UT
    
         The Minor Planet Electronic Circulars contain information on unusual
             minor planets and routine data on comets.  They are published
        on behalf of Division F of the International Astronomical Union by the
              Minor Planet Center, Smithsonian Astrophysical Observatory,
                              Cambridge, MA 02138, U.S.A.
    
                 Prepared using the Tamkin Foundation Computer Network
    
                                  MPC@CFA.HARVARD.EDU
                URL https://www.minorplanetcenter.net/    ISSN 1523-6714
    
                           COMET P/2020 S5 (PANSTARRS)                       
    
         R. Weryk reports the discovery of a comet in exposures taken on Sept. 21 UT
    by Pan-STARRS 1 (F51), noting a 0".9 coma and 4" tail at PA 225.  Prediscovery
    detections going back to Aug. 26 were later reported by Mount Lemmon Survey
    (G96).  Additional reports of cometary features are as follows:
    
    OC   Date        Reporter           Coma    Tail    PA          Exposures
    I52  2020-09-23  D. Rankin           6"      5"     240
    L01  2020-09-24  K. Korlevic         6"                           6x180s
    H06  2020-09-25  H. Sato             8"      8"     300
    F51  2020-09-26  R. Weryk           0".3     4"     240           4x60s
    204  2020-09-27  A. Aletti           5"     10"     220          45x60s
    
    Observations:
        PK20S050  C2020 08 26.38742 01 39 22.79 +25 10 36.7          20.5 GVES240G96
        PK20S050  C2020 08 26.39311 01 39 22.86 +25 10 39.6                VES240G96
        PK20S050  C2020 09 18.41855 01 35 06.90 +27 26 54.5          20.8 GVES240G96
        PK20S050  C2020 09 18.42425 01 35 06.70 +27 26 56.1          20.7 GVES240G96
        PK20S050  C2020 09 18.42993 01 35 06.58 +27 26 56.2          20.4 GVES240G96
        PK20S050  C2020 09 18.43561 01 35 06.40 +27 26 58.3          20.7 GVES240G96
        PK20S050  C2020 09 21.53778401 33 34.184+27 37 54.15         20.55GVES240F51
        PK20S050  C2020 09 21.54925701 33 33.837+27 37 56.69         20.92GVES240F51
        PK20S050* C2020 09 21.56069701 33 33.419+27 37 58.54         20.40wUES240F51
        PK20S050  C2020 09 21.57210601 33 33.055+27 38 00.91         20.74wUES240F51
        PK20S050 KC2020 09 23.46701301 32 30.84 +27 43 38.1          20.17GVES240I52
        PK20S050 KC2020 09 23.47331101 32 30.62 +27 43 39.3          19.76GVES240I52
        PK20S050 KC2020 09 23.48086701 32 30.31 +27 43 40.2          20.07GVES240I52
        PK20S050 KC2020 09 24.09114401 32 09.53 +27 45 19.1          20.2 GVES240L01
        PK20S050 KC2020 09 24.09439801 32 09.39 +27 45 19.1          20.1 GVES240L01
        PK20S050 KC2020 09 24.09765201 32 09.27 +27 45 19.5          20.1 GVES240L01
        PK20S050 |C2020 09 25.35543 01 31 24.90 +27 48 29.1                VES240H06
        PK20S050 |C2020 09 25.36110 01 31 24.68 +27 48 30.0                VES240H06
        PK20S050 |C2020 09 25.36676 01 31 24.48 +27 48 30.7          20.0 GVES240H06
        PK20S050 KC2020 09 27.01979 01 30 23.66 +27 52 05.3                VES240204
        PK20S050 KC2020 09 27.03108 01 30 23.20 +27 52 06.3          20.4 GVES240204
        PK20S050 KC2020 09 27.04237 01 30 22.74 +27 52 08.3                VES240204
    
    Observer details:
    204 Schiaparelli Observatory.  Observer L. Buzzi.  Measurer A. Aletti.  0.84-m
        f/3.5 reflector + CCD.
    F51 Pan-STARRS 1, Haleakala.  Observers J. Bulger, K. Chambers, T. Lowe, A.
        Schultz, M. Willman.  Measurers S. Chastel, M. Huber, Y. Ramanjooloo, R.
        Wainscoat, R. Weryk, K. Chambers, T. de Boer, L. Denneau, J. Fairlamb, H.
        Flewelling, C.-C. Lin, E. Magnier.  1.8-m Ritchey-Chretien + CCD.
    G96 Mt. Lemmon Survey.  Observer K. W. Wierzchos.  Measurers B. Gray, D.
        Rankin, F. C. Shelly.  1.5-m reflector + 10K CCD.
    H06 iTelescope Observatory, Mayhill.  Observer H. Sato.  0.43-m f/6.8
        astrograph + CCD + f/4.5 focal reducer.
    I52 Steward Observatory, Mt. Lemmon Station.  Observer D. Rankin.  Measurers
        E. J. Christensen, G. A. Farneth, D. C. Fuls, A. R. Gibbs, A. D. Grauer,
        H. Groeller, R. A. Kowalski, S. M. Larson, G. J. Leonard, T. A. Pruyne, D.
        Rankin, R. L. Seaman, F. C. Shelly, K. W. Wierzchos.  1.0-m reflector +
        CCD.
    L01 Visnjan Observatory, Tican.  Observer K. Korlevic.  1.0-m f/2.9 reflector
        + CCD.
    
    Orbital elements:
        P/2020 S5 (PANSTARRS)                                                       
    Epoch 2020 Aug. 19.0 TT = JDT 2459080.5                                         
    T 2020 Aug. 8.40686 TT                                  Rudenko                 
    q   2.6792508            (2000.0)            P               Q                  
    n   0.12095918     Peri.   53.01269     +0.97476053     -0.16660130             
    a   4.0492709      Node   316.01561     +0.06376388     +0.84570100             
    e   0.3383375      Incl.   12.35673     +0.21395344     +0.50698504             
    P   8.15                                                                        
    From 29 observations 2020 Aug. 26-Sept. 27, mean residual 0".3.                 
                                                                                    
        P/2020 S5 (PANSTARRS)                                                       
    Epoch 2028 Sept. 26.0 TT = JDT 2462040.5                                        
    T 2028 Oct. 12.65683 TT                                 Rudenko                 
    q   2.6955654            (2000.0)            P               Q                  
    n   0.12025918     Peri.   53.17670     +0.97447815     -0.16830253             
    a   4.0649689      Node   315.95358     +0.06536123     +0.84579096             
    e   0.3368792      Incl.   12.33719     +0.21475627     +0.50627256             
    P   8.20                                                                        
    From 29 observations 2020 Aug. 26-Sept. 27, mean residual 0".3.                 
                                                                                    
        P/2020 S5 (PANSTARRS)                                                       
    Epoch 2020 Dec. 17.0 TT = JDT 2459200.5                                         
    T 2020 Aug. 8.46471 TT                                  Rudenko                 
    q   2.6792996            (2000.0)            P               Q                  
    n   0.12094939     Peri.   53.02767     +0.97471680     -0.16685678             
    a   4.0494893      Node   316.01564     +0.06398536     +0.84568408             
    e   0.3383611      Incl.   12.35675     +0.21408650     +0.50692924             
    P   8.15                                                                        
    From 29 observations 2020 Aug. 26-Sept. 27, mean residual 0".3.                 
                                                                                    
    Ephemeris:
    Date    TT    R. A. (2000) Decl.     Delta      r    Elong.  Phase   m1    m2
    2020 08 30    01 39 34.6 +25 37 29   1.9936  2.6825   123.2    18.4  20.3
    ...
    2020 09 14    01 36 56.2 +27 07 56   1.8686  2.6885   136.4    14.9  20.2
    ...
    2020 09 22    01 33 19.5 +27 39 21   1.8177  2.6930   143.7    12.7  20.1
    ...
    2020 09 28    01 29 46.3 +27 53 58   1.7882  2.6970   149.0    11.0  20.1
    2020 09 29    01 29 07.2 +27 55 37   1.7840  2.6977   149.9    10.7  20.1
    2020 09 30    01 28 27.3 +27 57 03   1.7801  2.6984   150.7    10.5  20.1
    ...
    2020 10 06    01 24 11.5 +28 00 55   1.7613  2.7030   155.5     8.8  20.0
    ...
    2020 10 14    01 18 03.7 +27 53 34   1.7500  2.7098   160.2     7.2  20.0
    ...
    2020 10 29    01 06 58.2 +27 06 37   1.7732  2.7249   159.3     7.4  20.1
    
    M. P. C. Staff               (C) Copyright 2020 MPC           M.P.E.C. 2020-S240
    


    Read MPEC 2020-S239 Read MPEC 2020-S241


    MPEC number:

    Enter an MPEC number in one of the following forms:

    • 1997-B01 (the full form)
    • J97B01 (the packed version of the full form)
    • B01 (the abbreviated form)